GSAT0219 (GALILEO 23) (43566 NORAD) Tracking and Keplerian Element Data

This shows tracking and keplerian element data for the satellite.

Feedback or suggestion? Click here.




ElementValue
Catalog43566
NameGSAT0219 (GALILEO 23)
Epoch Orbit1964
Epoch Day261.14675381
Epoch Year2021
RAAN28.5719
Inclination57.067
Eccentricity0.0002035
Argument of Perigee248.9824
Mean Anonmoly110.9854
Mean Motion1.70476031
Decay Rate-9.3E-07
L11 43566U 18060C 21261.14675381 -.00000093 00000-0 00000-0 0 9999
L22 43566 57.0670 28.5719 0002035 248.9824 110.9854 1.70476031 19647

Live tracking and technical data element details for GSAT0219 (GALILEO 23) (NORAD 43566). GSAT0219 (GALILEO 23) can be tracked NOW for your location showing map with azimuth and elevation plus other details from your city location.

Track the satellite on the map from your city or location and see movement details for azimuth, elevation, latitude, longitude, range, height, and movement on the map or in text.







IsCatalogInMostPopularTable: catalog: 43566, numindb: 551
Update: records affected: 1



GetName: 43566 GSAT0219 (GALILEO 23)

Hit Count: updated at: Sun, 26 Sep 2021 00:34:29 GMT